NORTHERN NASSAU  -  Areal Flood Advisory Areal Flood Advisory     Flash Flood Watch Flash Flood Watch     Rip Current Statement Rip Current Statement        NORTHERN QUEENS  -  Areal Flood Advisory Areal Flood Advisory     Flash Flood Watch Flash Flood Watch     Rip Current Statement Rip Current Statement        SOUTHERN NASSAU  -  Areal Flood Advisory Areal Flood Advisory     Flash Flood Watch Flash Flood Watch     Rip Current Statement Rip Current Statement        SOUTHERN QUEENS  -  Areal Flood Advisory Areal Flood Advisory     Flash Flood Watch Flash Flood Watch     Rip Current Statement Rip Current Statement        NORTHEAST SUFFOLK  -  Rip Current Statement Rip Current Statement        NORTHWEST SUFFOLK  -  Rip Current Statement Rip Current Statement        SOUTHEAST SUFFOLK  -  Rip Current Statement Rip Current Statement        SOUTHWEST SUFFOLK  -  Rip Current Statement Rip Current Statement      

Active alerts

Northern Queens
  Details for Northern Queens Areal Flood Advisory  +2 additional alerts
Southern Queens
  Details for Southern Queens Areal Flood Advisory  +2 additional alerts
Northern Nassau
  Details for Northern Nassau Areal Flood Advisory  +2 additional alerts
Southern Nassau
  Details for Southern Nassau Areal Flood Advisory  +2 additional alerts
Northwest Suffolk
  Details for Northwest Suffolk Rip Current Statement
Southwest Suffolk
  Details for Southwest Suffolk Rip Current Statement
Northeast Suffolk
  Details for Northeast Suffolk Rip Current Statement
Southeast Suffolk
  Details for Southeast Suffolk Rip Current Statement


WXM80 ListenWXM80 Stop

You find our weather info also at:

UK Metoffice

WeatherCloud

Weather Underground

Northeastern Weather Network

AWEKAS

Citizen Weather Observer Program (CWOP)

HAMweather, WeatherForYou, PWS Weather


Weather Underground History page Text

Daily Summary for February 24, 2017 Units:  English    Metric   Both
« Previous Day
Next Day »
Daily Weekly Monthly Yearly Custom
  High: Low: Average:
Temperature: 71.8 °F 49.4 °F 59 °F
Dew Point: 59.0 °F 46.7 °F 53.4 °F
Humidity: 96 % 62 % 83 %
Wind Speed: 9.5 mph 0.0 mph 3.7 mph
Wind Gust: 16.1 mph - -
Wind:- - SSW
Pressure: 29.94 in 29.83 in -
Precipitation: 0.00 in    
Historical Graphs
 
 
Tabular Data for February 24, 2017
Time Temperature Dew Point Pressure Wind Wind Speed Wind Gust Humidity Rainfall Rate (Hourly)
00:03 53.4 °F 49.6 °F 29.88 in SW 2.3 mph 3.5 mph 87 % 0.00 in
00:08 53.3 °F 49.5 °F 29.87 in SW 0.1 mph 2.3 mph 87 % 0.00 in
00:13 53.2 °F 49.1 °F 29.88 in SW 0.2 mph   86 % 0.00 in
00:18 53.0 °F 48.6 °F 29.87 in SW 0.1 mph 1.2 mph 85 % 0.00 in
00:23 53.0 °F 48.9 °F 29.87 in Calm   1.2 mph 86 % 0.00 in
00:28 52.9 °F 49.1 °F 29.88 in WSW 1.0 mph 3.0 mph 87 % 0.00 in
00:33 52.8 °F 49.0 °F 29.88 in WSW 1.0 mph 2.0 mph 87 % 0.00 in
00:38 52.6 °F 48.8 °F 29.88 in SW 2.0 mph 7.0 mph 87 % 0.00 in
00:43 52.3 °F 47.6 °F 29.87 in Calm   3.0 mph 84 % 0.00 in
00:48 52.0 °F 47.3 °F 29.88 in SW 1.0 mph 3.0 mph 84 % 0.00 in
00:53 51.8 °F 47.4 °F 29.88 in Calm   3.0 mph 85 % 0.00 in
00:58 51.7 °F 47.3 °F 29.88 in WSW 1.2 mph 2.3 mph 85 % 0.00 in
01:03 51.4 °F 47.0 °F 29.88 in WSW 1.1 mph 2.3 mph 85 % 0.00 in
01:08 51.1 °F 46.7 °F 29.88 in SSW 1.8 mph 4.6 mph 85 % 0.00 in
01:13 51.0 °F 47.3 °F 29.88 in SW 0.3 mph 2.0 mph 87 % 0.00 in
01:18 50.9 °F 47.5 °F 29.88 in SSW 3.4 mph 4.6 mph 88 % 0.00 in
01:23 51.0 °F 48.2 °F 29.88 in SSW 1.4 mph 3.5 mph 90 % 0.00 in
01:28 51.2 °F 48.7 °F 29.88 in SSW 3.8 mph 5.0 mph 91 % 0.00 in
01:33 51.3 °F 48.8 °F 29.88 in SSW 2.7 mph 3.5 mph 91 % 0.00 in
01:38 51.5 °F 49.0 °F 29.89 in SSW 3.8 mph 4.6 mph 91 % 0.00 in
01:43 51.7 °F 49.5 °F 29.88 in SSW 2.0 mph 4.6 mph 92 % 0.00 in
01:48 51.8 °F 49.3 °F 29.89 in SW 2.4 mph 3.5 mph 91 % 0.00 in
01:54 51.9 °F 49.4 °F 29.89 in SW 0.6 mph 3.5 mph 91 % 0.00 in
01:59 52.0 °F 49.5 °F 29.89 in SSW 1.8 mph 3.0 mph 91 % 0.00 in
02:04 52.0 °F 49.5 °F 29.88 in SSW 0.9 mph 3.5 mph 91 % 0.00 in
02:09 52.1 °F 49.6 °F 29.89 in Calm     91 % 0.00 in
02:14 52.1 °F 49.6 °F 29.89 in SSW 0.3 mph 2.3 mph 91 % 0.00 in
02:19 52.1 °F 49.3 °F 29.89 in SSW 2.0 mph 3.5 mph 90 % 0.00 in
02:24 52.1 °F 49.3 °F 29.89 in SW 1.0 mph 3.5 mph 90 % 0.00 in
02:29 52.0 °F 49.2 °F 29.89 in SSW 0.3 mph 3.5 mph 90 % 0.00 in
02:34 51.9 °F 49.1 °F 29.89 in SSW 2.0 mph 3.5 mph 90 % 0.00 in
02:39 51.9 °F 49.1 °F 29.89 in SW 1.0 mph 3.5 mph 90 % 0.00 in
02:44 51.8 °F 49.0 °F 29.89 in South 2.6 mph 6.0 mph 90 % 0.00 in
02:49 51.7 °F 48.9 °F 29.89 in SSW 1.5 mph 4.6 mph 90 % 0.00 in
02:54 51.6 °F 48.8 °F 29.89 in SSW 1.5 mph 4.6 mph 90 % 0.00 in
02:59 51.5 °F 48.7 °F 29.89 in SW 1.6 mph 4.6 mph 90 % 0.00 in
03:04 51.4 °F 48.6 °F 29.89 in SW 2.2 mph 4.6 mph 90 % 0.00 in
03:09 51.4 °F 48.9 °F 29.89 in SW 1.1 mph 2.3 mph 91 % 0.00 in
03:14 51.4 °F 48.9 °F 29.89 in SW 1.1 mph 2.3 mph 91 % 0.00 in
03:19 51.3 °F 48.8 °F 29.89 in SSW 2.3 mph 3.5 mph 91 % 0.00 in
03:24 51.3 °F 48.8 °F 29.89 in SW 2.4 mph 3.5 mph 91 % 0.00 in
03:29 51.3 °F 48.8 °F 29.89 in SW 0.7 mph 2.3 mph 91 % 0.00 in
03:34 51.3 °F 48.8 °F 29.89 in SW 1.4 mph 2.3 mph 91 % 0.00 in
03:40 51.2 °F 48.7 °F 29.89 in South 0.9 mph 3.5 mph 91 % 0.00 in
03:45 51.2 °F 48.7 °F 29.89 in WNW 0.4 mph 3.5 mph 91 % 0.00 in
03:50 51.2 °F 48.7 °F 29.89 in SW 2.5 mph 3.5 mph 91 % 0.00 in
03:55 51.2 °F 48.7 °F 29.89 in SW 0.9 mph 2.0 mph 91 % 0.00 in
04:00 51.2 °F 48.7 °F 29.89 in Calm   1.2 mph 91 % 0.00 in
04:05 51.2 °F 49.0 °F 29.89 in SW 1.5 mph 2.3 mph 92 % 0.00 in
04:10 51.2 °F 49.0 °F 29.90 in SW 0.6 mph 3.0 mph 92 % 0.00 in
04:15 51.2 °F 49.0 °F 29.89 in SW 2.7 mph 4.0 mph 92 % 0.00 in
04:20 51.2 °F 49.0 °F 29.90 in WSW 2.3 mph 4.0 mph 92 % 0.00 in
04:25 51.2 °F 49.2 °F 29.90 in SSW 2.2 mph 5.8 mph 93 % 0.00 in
04:30 51.2 °F 49.2 °F 29.90 in SSW 2.5 mph 5.0 mph 93 % 0.00 in
04:35 51.2 °F 49.2 °F 29.90 in SW 1.4 mph 3.5 mph 93 % 0.00 in
04:40 51.2 °F 49.0 °F 29.90 in WSW 1.7 mph 3.5 mph 92 % 0.00 in
04:45 51.2 °F 49.0 °F 29.90 in SW 2.7 mph 3.5 mph 92 % 0.00 in
04:50 51.1 °F 48.9 °F 29.90 in SSW 1.8 mph 3.5 mph 92 % 0.00 in
04:55 51.1 °F 48.9 °F 29.90 in SW 1.4 mph 2.3 mph 92 % 0.00 in
05:00 51.1 °F 48.9 °F 29.90 in SW 2.2 mph 3.5 mph 92 % 0.00 in
05:05 51.1 °F 48.9 °F 29.90 in SSW 1.8 mph 3.5 mph 92 % 0.00 in
05:10 51.0 °F 48.8 °F 29.90 in SSW 0.8 mph 2.3 mph 92 % 0.00 in
05:15 51.0 °F 48.8 °F 29.90 in SW 0.7 mph 2.3 mph 92 % 0.00 in
05:20 51.0 °F 48.8 °F 29.90 in WSW 0.7 mph 3.0 mph 92 % 0.00 in
05:25 51.0 °F 49.0 °F 29.91 in WSW 2.9 mph 3.5 mph 93 % 0.00 in
05:31 51.1 °F 49.1 °F 29.91 in WSW 1.6 mph 2.3 mph 93 % 0.00 in
05:36 51.1 °F 49.1 °F 29.91 in WSW 0.4 mph 2.3 mph 93 % 0.00 in
05:41 51.1 °F 49.1 °F 29.90 in WSW 0.2 mph 2.3 mph 93 % 0.00 in
05:46 51.1 °F 49.1 °F 29.90 in WSW 0.7 mph 1.2 mph 93 % 0.00 in
05:51 51.0 °F 49.0 °F 29.90 in SW 1.5 mph 3.5 mph 93 % 0.00 in
05:56 50.9 °F 48.9 °F 29.90 in Calm     93 % 0.00 in
06:01 50.8 °F 48.6 °F 29.90 in Calm     92 % 0.00 in
06:06 50.6 °F 48.4 °F 29.90 in SW 0.2 mph 2.0 mph 92 % 0.00 in
06:11 50.5 °F 48.3 °F 29.90 in Calm     92 % 0.00 in
06:16 50.4 °F 48.2 °F 29.90 in Calm     92 % 0.00 in
06:21 50.1 °F 47.6 °F 29.90 in Calm     91 % 0.00 in
06:26 49.7 °F 47.2 °F 29.90 in Calm     91 % 0.00 in
06:31 49.4 °F 46.9 °F 29.90 in SSW 1.3 mph 1.3 mph 91 % 0.00 in
06:36 49.4 °F 47.2 °F 29.90 in SW 2.5 mph 4.6 mph 92 % 0.00 in
06:41 49.6 °F 47.7 °F 29.91 in West 2.5 mph 4.6 mph 93 % 0.00 in
06:46 50.0 °F 48.3 °F 29.91 in West 1.0 mph 3.5 mph 94 % 0.00 in
06:51 50.1 °F 48.7 °F 29.91 in Calm     95 % 0.00 in
06:56 50.3 °F 48.9 °F 29.91 in SSW 0.8 mph 4.0 mph 95 % 0.00 in
07:01 50.5 °F 49.1 °F 29.90 in SE 0.6 mph 2.3 mph 95 % 0.00 in
07:06 50.8 °F 49.7 °F 29.90 in South 1.1 mph 4.0 mph 96 % 0.00 in
07:11 51.0 °F 49.6 °F 29.91 in South 2.5 mph 4.6 mph 95 % 0.00 in
07:16 51.2 °F 49.8 °F 29.91 in SSW 4.9 mph 6.0 mph 95 % 0.00 in
07:22 51.4 °F 50.0 °F 29.91 in South 5.0 mph 8.1 mph 95 % 0.00 in
07:27 51.6 °F 50.2 °F 29.91 in SSW 4.5 mph 8.1 mph 95 % 0.00 in
07:32 51.7 °F 50.3 °F 29.91 in South 3.5 mph 4.6 mph 95 % 0.00 in
07:37 52.1 °F 50.7 °F 29.91 in South 3.7 mph 8.1 mph 95 % 0.00 in
07:42 52.4 °F 51.0 °F 29.91 in SSW 2.5 mph 3.5 mph 95 % 0.00 in
07:47 53.1 °F 51.7 °F 29.91 in SSW 4.0 mph 5.8 mph 95 % 0.00 in
07:52 53.7 °F 52.0 °F 29.91 in South 6.4 mph 8.0 mph 94 % 0.00 in
07:57 54.6 °F 52.9 °F 29.91 in SW 3.9 mph 11.5 mph 94 % 0.00 in
08:02 55.4 °F 53.4 °F 29.92 in SSW 4.4 mph 10.4 mph 93 % 0.00 in
08:07 56.2 °F 53.9 °F 29.92 in SSW 7.1 mph 11.5 mph 92 % 0.00 in
08:12 56.9 °F 54.0 °F 29.92 in SSW 4.5 mph 12.7 mph 90 % 0.00 in
08:17 57.4 °F 53.9 °F 29.92 in WSW 6.0 mph 11.5 mph 88 % 0.00 in
08:22 57.8 °F 54.0 °F 29.92 in SW 5.9 mph 8.1 mph 87 % 0.00 in
08:27 58.1 °F 53.9 °F 29.92 in SW 5.8 mph 10.4 mph 86 % 0.00 in
08:32 58.6 °F 54.1 °F 29.92 in SW 5.4 mph 6.9 mph 85 % 0.00 in
08:37 59.2 °F 54.7 °F 29.93 in WSW 7.2 mph 11.5 mph 85 % 0.00 in
08:42 59.9 °F 55.4 °F 29.93 in SW 5.0 mph 10.4 mph 85 % 0.00 in
08:47 60.4 °F 55.2 °F 29.93 in SW 3.6 mph 11.5 mph 83 % 0.00 in
08:52 60.7 °F 54.8 °F 29.93 in WNW 2.2 mph 4.0 mph 81 % 0.00 in
08:57 60.4 °F 53.2 °F 29.93 in West 2.7 mph 4.0 mph 77 % 0.00 in
08:58 60.3 °F 53.1 °F 29.93 in WNW 2.5 mph 3.5 mph 77 % 0.00 in
09:03 59.9 °F 53.0 °F 29.93 in WNW 1.6 mph 3.5 mph 78 % 0.00 in
09:08 59.6 °F 52.7 °F 29.93 in WNW 2.3 mph 3.5 mph 78 % 0.00 in
09:14 59.3 °F 52.1 °F 29.93 in WNW 1.4 mph 2.3 mph 77 % 0.00 in
09:19 59.0 °F 51.4 °F 29.93 in WNW 2.6 mph 3.5 mph 76 % 0.00 in
09:24 58.8 °F 51.6 °F 29.93 in NW 2.1 mph 4.0 mph 77 % 0.00 in
09:29 58.8 °F 51.6 °F 29.93 in NW 0.7 mph 2.3 mph 77 % 0.00 in
09:34 59.5 °F 53.0 °F 29.94 in Calm     79 % 0.00 in
09:39 59.7 °F 51.4 °F 29.94 in NNW 0.2 mph 2.3 mph 74 % 0.00 in
09:44 59.7 °F 51.4 °F 29.94 in NNW 0.1 mph 1.0 mph 74 % 0.00 in
09:49 59.0 °F 50.0 °F 29.93 in NNE 2.5 mph 3.5 mph 72 % 0.00 in
09:54 57.9 °F 48.9 °F 29.94 in NE 1.3 mph 3.5 mph 72 % 0.00 in
09:59 57.6 °F 49.7 °F 29.93 in NE 2.2 mph 5.0 mph 75 % 0.00 in
10:04 57.4 °F 49.5 °F 29.94 in NNE 0.4 mph 3.5 mph 75 % 0.00 in
10:09 57.3 °F 49.1 °F 29.93 in ENE 3.3 mph 5.0 mph 74 % 0.00 in
10:14 56.2 °F 48.0 °F 29.93 in NNE 2.2 mph 3.5 mph 74 % 0.00 in
10:19 55.9 °F 48.8 °F 29.93 in NNE 0.6 mph 2.3 mph 77 % 0.00 in
10:24 56.0 °F 49.6 °F 29.93 in NNE 1.1 mph 3.5 mph 79 % 0.00 in
10:29 56.8 °F 50.7 °F 29.93 in Calm   1.2 mph 80 % 0.00 in
10:34 57.7 °F 51.9 °F 29.93 in NE 1.5 mph 3.5 mph 81 % 0.00 in
10:39 58.8 °F 53.3 °F 29.93 in WSW 1.1 mph 4.0 mph 82 % 0.00 in
10:44 60.2 °F 55.7 °F 29.92 in SSW 5.4 mph 10.4 mph 85 % 0.00 in
10:49 62.4 °F 56.8 °F 29.92 in WSW 7.1 mph 11.5 mph 82 % 0.00 in
10:54 64.6 °F 57.6 °F 29.92 in SSE 2.4 mph 4.6 mph 78 % 0.00 in
10:59 66.2 °F 58.0 °F 29.92 in SSE 6.5 mph 10.4 mph 75 % 0.00 in
11:05 67.6 °F 58.6 °F 29.92 in South 2.7 mph 6.0 mph 73 % 0.00 in
11:10 68.9 °F 58.7 °F 29.92 in SW 5.3 mph 7.0 mph 70 % 0.00 in
11:15 69.7 °F 58.3 °F 29.91 in SSW 4.7 mph 8.1 mph 67 % 0.00 in
11:20 70.1 °F 58.2 °F 29.91 in SSE 6.1 mph 13.8 mph 66 % 0.00 in
11:25 70.4 °F 58.5 °F 29.91 in South 6.4 mph 10.0 mph 66 % 0.00 in
11:30 70.6 °F 58.7 °F 29.91 in SSW 3.2 mph 7.0 mph 66 % 0.00 in
11:35 71.0 °F 58.6 °F 29.90 in SSE 7.8 mph 11.5 mph 65 % 0.00 in
11:40 71.1 °F 58.7 °F 29.90 in South 3.3 mph 6.9 mph 65 % 0.00 in
11:45 71.3 °F 58.5 °F 29.90 in SSW 4.9 mph 5.8 mph 64 % 0.00 in
11:50 71.3 °F 58.5 °F 29.90 in SSW 6.5 mph 9.2 mph 64 % 0.00 in
11:55 71.3 °F 58.1 °F 29.90 in SSW 5.9 mph 8.1 mph 63 % 0.00 in
12:00 71.3 °F 58.1 °F 29.90 in SW 6.6 mph 9.2 mph 63 % 0.00 in
12:05 71.4 °F 58.1 °F 29.90 in SSW 8.3 mph 13.0 mph 63 % 0.00 in
12:10 71.4 °F 58.1 °F 29.89 in SSW 7.0 mph 9.2 mph 63 % 0.00 in
12:15 71.3 °F 58.1 °F 29.89 in South 5.4 mph 8.1 mph 63 % 0.00 in
12:20 71.5 °F 58.2 °F 29.89 in South 7.6 mph 11.5 mph 63 % 0.00 in
12:25 71.5 °F 58.2 °F 29.89 in SE 4.1 mph 9.0 mph 63 % 0.00 in
12:30 71.3 °F 58.1 °F 29.88 in South 7.8 mph 12.7 mph 63 % 0.00 in
12:35 71.1 °F 57.9 °F 29.88 in SSW 8.7 mph 15.0 mph 63 % 0.00 in
12:40 71.0 °F 58.2 °F 29.88 in SW 7.7 mph 11.5 mph 64 % 0.00 in
12:45 71.2 °F 58.4 °F 29.88 in SW 6.8 mph 11.5 mph 64 % 0.00 in
12:50 71.4 °F 58.1 °F 29.88 in SSW 3.2 mph 8.1 mph 63 % 0.00 in
12:51 71.4 °F 58.1 °F 29.88 in SSW 2.4 mph 8.1 mph 63 % 0.00 in
12:56 71.6 °F 58.3 °F 29.87 in South 3.0 mph 10.4 mph 63 % 0.00 in
13:01 71.6 °F 58.3 °F 29.87 in SSE 8.1 mph 11.5 mph 63 % 0.00 in
13:06 71.4 °F 58.1 °F 29.87 in SW 9.5 mph 12.7 mph 63 % 0.00 in
13:11 71.5 °F 58.7 °F 29.86 in SSE 3.6 mph 6.0 mph 64 % 0.00 in
13:16 71.7 °F 58.4 °F 29.86 in SW 5.0 mph 11.5 mph 63 % 0.00 in
13:21 71.8 °F 58.5 °F 29.86 in SSW 5.5 mph 8.1 mph 63 % 0.00 in
13:26 71.8 °F 58.5 °F 29.86 in SSW 6.5 mph 11.5 mph 63 % 0.00 in
13:31 71.6 °F 58.3 °F 29.86 in South 6.3 mph 15.0 mph 63 % 0.00 in
13:36 71.6 °F 58.3 °F 29.86 in SW 7.1 mph 9.2 mph 63 % 0.00 in
13:41 71.7 °F 58.4 °F 29.86 in SSW 2.4 mph 5.0 mph 63 % 0.00 in
13:46 71.8 °F 59.0 °F 29.86 in South 5.0 mph 11.5 mph 64 % 0.00 in
13:51 71.7 °F 58.0 °F 29.86 in SE 5.5 mph 9.2 mph 62 % 0.00 in
13:56 71.0 °F 57.3 °F 29.86 in South 5.2 mph 9.2 mph 62 % 0.00 in
14:01 71.0 °F 57.8 °F 29.86 in SSW 5.4 mph 7.0 mph 63 % 0.00 in
14:07 71.0 °F 57.3 °F 29.85 in WSW 6.7 mph 9.2 mph 62 % 0.00 in
14:12 70.7 °F 57.0 °F 29.85 in SW 7.2 mph 11.5 mph 62 % 0.00 in
14:17 70.5 °F 57.3 °F 29.85 in SSW 7.1 mph 13.8 mph 63 % 0.00 in
14:22 70.2 °F 57.0 °F 29.85 in SW 7.0 mph 11.5 mph 63 % 0.00 in
14:27 70.1 °F 57.4 °F 29.85 in South 4.3 mph 8.1 mph 64 % 0.00 in
14:32 70.1 °F 57.4 °F 29.85 in South 7.6 mph 11.5 mph 64 % 0.00 in
14:37 70.1 °F 57.4 °F 29.85 in South 5.7 mph 7.0 mph 64 % 0.00 in
14:42 69.9 °F 56.7 °F 29.85 in SSW 5.8 mph 16.1 mph 63 % 0.00 in
14:47 69.6 °F 56.9 °F 29.85 in South 7.4 mph 11.5 mph 64 % 0.00 in
14:52 69.4 °F 56.7 °F 29.84 in South 3.1 mph 10.4 mph 64 % 0.00 in
14:57 69.3 °F 56.6 °F 29.85 in South 5.4 mph 8.1 mph 64 % 0.00 in
15:02 69.1 °F 56.4 °F 29.85 in SW 8.3 mph 11.5 mph 64 % 0.00 in
15:07 68.9 °F 56.6 °F 29.85 in SSW 1.7 mph 4.0 mph 65 % 0.00 in
15:12 68.8 °F 56.6 °F 29.85 in South 5.1 mph 11.5 mph 65 % 0.00 in
15:17 68.5 °F 56.3 °F 29.85 in South 3.9 mph 9.2 mph 65 % 0.00 in
15:22 68.2 °F 56.4 °F 29.85 in South 7.3 mph 11.5 mph 66 % 0.00 in
15:27 68.0 °F 56.6 °F 29.85 in South 7.5 mph 10.4 mph 67 % 0.00 in
15:32 67.9 °F 56.5 °F 29.85 in WSW 6.4 mph 13.8 mph 67 % 0.00 in
15:37 67.6 °F 56.7 °F 29.85 in South 3.1 mph 4.6 mph 68 % 0.00 in
15:42 67.4 °F 56.5 °F 29.85 in SSW 5.3 mph 8.1 mph 68 % 0.00 in
15:48 67.1 °F 56.6 °F 29.85 in South 5.9 mph 11.5 mph 69 % 0.00 in
15:53 66.8 °F 56.3 °F 29.85 in South 7.2 mph 11.5 mph 69 % 0.00 in
15:58 66.7 °F 56.6 °F 29.84 in South 2.2 mph 8.0 mph 70 % 0.00 in
16:03 66.5 °F 56.4 °F 29.85 in SW 4.0 mph 5.8 mph 70 % 0.00 in
16:08 66.4 °F 56.3 °F 29.85 in SSW 8.0 mph 12.7 mph 70 % 0.00 in
16:13 66.0 °F 56.3 °F 29.84 in SSW 6.7 mph 12.7 mph 71 % 0.00 in
16:15 65.9 °F 56.2 °F 29.84 in South 5.0 mph 6.9 mph 71 % 0.00 in
16:20 65.5 °F 56.2 °F 29.85 in South 9.0 mph 16.0 mph 72 % 0.00 in
16:25 65.1 °F 56.2 °F 29.84 in SSE 6.1 mph 11.5 mph 73 % 0.00 in
16:30 64.8 °F 55.9 °F 29.84 in South 6.2 mph 8.1 mph 73 % 0.00 in
16:35 64.6 °F 56.1 °F 29.84 in SSW 7.0 mph 11.0 mph 74 % 0.00 in
16:40 64.4 °F 55.9 °F 29.85 in South 7.0 mph 11.0 mph 74 % 0.00 in
16:45 64.2 °F 56.1 °F 29.85 in South 5.5 mph 10.0 mph 75 % 0.00 in
16:50 64.0 °F 55.9 °F 29.84 in South 8.9 mph 12.0 mph 75 % 0.00 in
16:55 63.8 °F 56.1 °F 29.85 in South 4.5 mph 10.4 mph 76 % 0.00 in
17:00 63.5 °F 55.8 °F 29.85 in SSE 6.9 mph 11.5 mph 76 % 0.00 in
17:05 63.3 °F 55.6 °F 29.84 in South 3.6 mph 6.0 mph 76 % 0.00 in
17:10 63.1 °F 55.4 °F 29.84 in SSE 3.2 mph 7.0 mph 76 % 0.00 in
17:15 63.0 °F 55.3 °F 29.84 in SSW 5.4 mph 9.2 mph 76 % 0.00 in
17:20 62.6 °F 55.3 °F 29.84 in South 4.1 mph 11.5 mph 77 % 0.00 in
17:25 62.2 °F 55.3 °F 29.84 in SSW 5.9 mph 9.2 mph 78 % 0.00 in
17:30 61.8 °F 55.2 °F 29.84 in SSW 3.4 mph 6.9 mph 79 % 0.00 in
17:35 61.6 °F 55.0 °F 29.84 in South 6.9 mph 10.4 mph 79 % 0.00 in
17:40 61.3 °F 55.1 °F 29.84 in SSW 5.8 mph 10.4 mph 80 % 0.00 in
17:45 61.0 °F 55.1 °F 29.84 in SSE 3.6 mph 10.4 mph 81 % 0.00 in
17:50 60.8 °F 55.3 °F 29.84 in South 6.4 mph 11.5 mph 82 % 0.00 in
17:56 60.6 °F 55.1 °F 29.84 in South 2.5 mph 5.8 mph 82 % 0.00 in
18:01 60.4 °F 55.2 °F 29.85 in South 3.9 mph 8.1 mph 83 % 0.00 in
18:06 60.1 °F 55.2 °F 29.85 in SSW 4.1 mph 10.4 mph 84 % 0.00 in
18:11 59.8 °F 55.0 °F 29.85 in South 3.1 mph 6.9 mph 84 % 0.00 in
18:16 59.6 °F 55.1 °F 29.85 in South 5.1 mph 9.0 mph 85 % 0.00 in
18:21 59.4 °F 54.9 °F 29.85 in SSW 4.8 mph 9.2 mph 85 % 0.00 in
18:26 59.2 °F 55.0 °F 29.84 in South 6.2 mph 9.2 mph 86 % 0.00 in
18:31 59.0 °F 55.1 °F 29.84 in South 5.0 mph 9.2 mph 87 % 0.00 in
18:36 58.8 °F 54.9 °F 29.84 in SSE 5.2 mph 10.4 mph 87 % 0.00 in
18:41 58.7 °F 54.8 °F 29.84 in South 4.8 mph 10.4 mph 87 % 0.00 in
18:46 58.5 °F 54.6 °F 29.84 in South 5.5 mph 9.2 mph 87 % 0.00 in
18:51 58.5 °F 54.6 °F 29.84 in South 5.6 mph 11.5 mph 87 % 0.00 in
18:56 58.4 °F 54.5 °F 29.84 in South 5.7 mph 9.2 mph 87 % 0.00 in
19:01 58.3 °F 54.4 °F 29.85 in South 3.8 mph 10.4 mph 87 % 0.00 in
19:06 58.2 °F 54.3 °F 29.84 in South 5.0 mph 11.5 mph 87 % 0.00 in
19:11 58.1 °F 54.6 °F 29.84 in South 3.9 mph 8.1 mph 88 % 0.00 in
19:16 58.1 °F 54.6 °F 29.84 in South 4.4 mph 7.0 mph 88 % 0.00 in
19:21 58.1 °F 54.9 °F 29.84 in South 6.5 mph 11.5 mph 89 % 0.00 in
19:26 58.2 °F 55.0 °F 29.84 in South 7.9 mph 13.8 mph 89 % 0.00 in
19:31 58.3 °F 55.1 °F 29.84 in South 6.6 mph 10.4 mph 89 % 0.00 in
19:36 58.3 °F 55.1 °F 29.84 in SSW 4.3 mph 9.2 mph 89 % 0.00 in
19:41 58.3 °F 55.4 °F 29.84 in SSW 5.6 mph 11.0 mph 90 % 0.00 in
19:46 58.3 °F 55.4 °F 29.84 in South 4.7 mph 9.2 mph 90 % 0.00 in
19:51 58.2 °F 55.3 °F 29.84 in SSW 4.7 mph 6.9 mph 90 % 0.00 in
19:57 58.2 °F 55.0 °F 29.84 in SSW 3.5 mph 6.9 mph 89 % 0.00 in
20:02 58.1 °F 55.2 °F 29.84 in SSW 4.6 mph 10.4 mph 90 % 0.00 in
20:07 58.0 °F 55.1 °F 29.84 in SW 3.6 mph 4.6 mph 90 % 0.00 in
20:12 58.0 °F 55.1 °F 29.84 in SW 3.5 mph 5.8 mph 90 % 0.00 in
20:17 57.9 °F 55.3 °F 29.84 in SSW 3.1 mph 4.6 mph 91 % 0.00 in
20:22 57.9 °F 55.3 °F 29.84 in South 3.6 mph 6.0 mph 91 % 0.00 in
20:27 57.9 °F 55.3 °F 29.84 in SW 4.2 mph 8.1 mph 91 % 0.00 in
20:32 57.9 °F 55.3 °F 29.85 in SSW 5.1 mph 6.9 mph 91 % 0.00 in
20:37 57.9 °F 55.3 °F 29.84 in South 3.6 mph 8.1 mph 91 % 0.00 in
20:42 57.9 °F 55.3 °F 29.84 in SSW 4.3 mph 5.0 mph 91 % 0.00 in
20:52 57.8 °F 55.2 °F 29.84 in SSW 3.9 mph 8.1 mph 91 % 0.00 in
20:57 57.7 °F 55.1 °F 29.84 in SSW 3.7 mph 4.6 mph 91 % 0.00 in
21:02 57.7 °F 55.4 °F 29.84 in SSW 4.7 mph 10.0 mph 92 % 0.00 in
21:07 57.6 °F 55.3 °F 29.84 in SSE 2.3 mph 5.8 mph 92 % 0.00 in
21:12 57.6 °F 55.3 °F 29.84 in SW 3.4 mph 6.9 mph 92 % 0.00 in
21:17 57.6 °F 55.3 °F 29.84 in SSW 3.7 mph 6.9 mph 92 % 0.00 in
21:22 57.6 °F 55.3 °F 29.84 in SSW 2.3 mph 5.8 mph 92 % 0.00 in
21:27 57.6 °F 55.6 °F 29.84 in SW 4.2 mph 10.4 mph 93 % 0.00 in
21:32 57.5 °F 55.5 °F 29.84 in SW 2.7 mph 4.6 mph 93 % 0.00 in
21:37 57.5 °F 55.5 °F 29.84 in South 3.3 mph 5.0 mph 93 % 0.00 in
21:42 57.4 °F 55.4 °F 29.84 in South 4.4 mph 6.9 mph 93 % 0.00 in
21:47 57.5 °F 55.5 °F 29.83 in SSE 1.7 mph 6.9 mph 93 % 0.00 in
21:53 57.5 °F 55.8 °F 29.84 in South 4.6 mph 7.0 mph 94 % 0.00 in
21:58 57.5 °F 55.8 °F 29.83 in South 4.1 mph 8.1 mph 94 % 0.00 in
22:03 57.5 °F 55.8 °F 29.83 in SSW 5.5 mph 10.0 mph 94 % 0.00 in
22:08 57.5 °F 55.8 °F 29.84 in SW 3.9 mph 7.0 mph 94 % 0.00 in
22:13 57.5 °F 55.8 °F 29.84 in South 5.8 mph 10.4 mph 94 % 0.00 in
22:18 57.6 °F 55.9 °F 29.83 in SSW 7.1 mph 11.5 mph 94 % 0.00 in
22:23 57.6 °F 56.2 °F 29.84 in SSW 3.6 mph 6.9 mph 95 % 0.00 in
22:28 57.6 °F 56.2 °F 29.83 in SW 4.7 mph 8.1 mph 95 % 0.00 in
22:33 57.7 °F 56.3 °F 29.84 in South 4.5 mph 5.8 mph 95 % 0.00 in
22:38 57.7 °F 56.3 °F 29.84 in SSE 1.9 mph 5.0 mph 95 % 0.00 in
22:43 57.7 °F 56.3 °F 29.83 in SSW 5.9 mph 9.2 mph 95 % 0.00 in
22:54 57.6 °F 56.2 °F 29.84 in SW 6.3 mph 11.5 mph 95 % 0.00 in
22:59 57.6 °F 56.2 °F 29.84 in South 5.8 mph 10.4 mph 95 % 0.00 in
23:04 57.6 °F 56.2 °F 29.84 in SSW 4.2 mph 8.1 mph 95 % 0.00 in
23:09 57.5 °F 56.1 °F 29.84 in SSW 6.6 mph 7.0 mph 95 % 0.00 in
23:14 57.4 °F 55.7 °F 29.84 in SSW 6.2 mph 11.5 mph 94 % 0.00 in
23:19 57.3 °F 55.6 °F 29.83 in SSW 4.5 mph 8.1 mph 94 % 0.00 in
23:24 57.1 °F 55.4 °F 29.83 in SSW 5.3 mph 8.1 mph 94 % 0.00 in
23:29 57.0 °F 55.3 °F 29.83 in SSW 4.4 mph 11.5 mph 94 % 0.00 in
23:34 56.9 °F 55.2 °F 29.84 in SSW 7.7 mph 12.7 mph 94 % 0.00 in
23:39 56.8 °F 55.1 °F 29.83 in SSW 5.2 mph 7.0 mph 94 % 0.00 in
23:44 56.7 °F 55.0 °F 29.83 in SSW 5.5 mph 8.1 mph 94 % 0.00 in
23:49 56.6 °F 54.9 °F 29.84 in South 5.0 mph 6.9 mph 94 % 0.00 in
23:54 56.5 °F 55.1 °F 29.83 in SSW 3.0 mph 6.9 mph 95 % 0.00 in
23:59 56.4 °F 55.0 °F 29.83 in SW 2.8 mph 6.9 mph 95 % 0.00 in
Crab Meadow Weather
Compliments of Weather Underground - 3 mb

Script developed by  Jim McMurry - jmcmurry@mwt.net Adapted for the template by  Wim van der Kuil - Leuven-Template.eu

Astronomy: The Sun is around 4.5 billion years old.